sat.trackr.live / text

‹ back to catalog

STARLINK-11330 [DTC]

NORAD 62011 · 2024-213D

PAYLOAD ACTIVE UNKNOWN

§ Identity

Operator
Country
US
Launch date
2024-11-18
Launch site
AFWTR
Launch vehicle
Mass (kg)
RCS (m²)

Purposes: comms

External: N2YO · Heavens-Above · Gunter

§ Orbital elements

Epoch: 2026-05-24T21:52:46.509024Z

Period
91.73 min
Inclination
53.1579°
Eccentricity
0.0000768
Mean motion
15.69748684 rev/d
Perigee alt
359.1 km
Apogee alt
360.1 km
Semi-major
6,737.8 km
B*
9.3652e-4
RAAN
25.7404°
Arg perigee
80.3510°
Mean anomaly
279.7594°
Rev number
8,688

§ Raw data

STARLINK-11330 [DTC]1 62011U 24213D   26144.91164941  .00114633  00000+0  93652-3 0  99992 62011  53.1579  25.7404 0000768  80.3510 279.7594 15.69748684 86883

JSON: /api/v1/satellites/62011 · /tle

For live sub-satellite position, see the globe view (requires WebGL).

§ Visibility from observer

Set your observer location to see the next 7 days of passes ≥ 10°. The values pass through the URL so the page stays shareable.

No JS? Fill the form by hand. The geolocation button needs JavaScript.